When you browse on this site, cookies collect data to enhance your experience and personalize the content and advertising you see.
Visit our Privacy Policy to learn more. By continuing to use the site, you agree to this use of cookies and data.
  • In Germany
  • List of Countries
  • For 7 days
  • Water Temperature
  • Weather Map
  • Weather Widgets
  • user-avatar
    Login

    Hourly Weather Obuhovskoe

    Today, 16 October, Wednesday

    Time Temperature Precipitation Wind Pressure Humidity
    00:00 +3°C° 0 mm 2 mps 745 mmHg 92%
    01:00 +2°C° 0 mm 3 mps 745 mmHg 93%
    02:00 +1°C° 0 mm 3 mps 745 mmHg 93%
    03:00 +1°C° 0 mm 3 mps 746 mmHg 92%
    04:00 0°C° 0 mm 3 mps 746 mmHg 91%
    05:00 -1°C° 0 mm 4 mps 746 mmHg 91%
    06:00 -1°C° 0 mm 4 mps 746 mmHg 91%
    07:00 -1°C° 0 mm 4 mps 747 mmHg 91%
    08:00 -1°C° 0 mm 4 mps 747 mmHg 92%
    09:00 0°C° 0 mm 4 mps 748 mmHg 93%
    10:00 0°C° 0 mm 5 mps 748 mmHg 94%
    11:00 0°C° 0.2 mm 5 mps 748 mmHg 95%
    12:00 0°C° 0.2 mm 5 mps 749 mmHg 95%
    13:00 0°C° 0.2 mm 5 mps 749 mmHg 95%
    14:00 +1°C° 0 mm 5 mps 750 mmHg 92%
    15:00 +1°C° 0 mm 5 mps 750 mmHg 89%
    16:00 +1°C° 0 mm 5 mps 751 mmHg 86%
    17:00 +1°C° 0 mm 5 mps 751 mmHg 86%
    18:00 0°C° 0 mm 4 mps 752 mmHg 86%
    19:00 0°C° 0 mm 4 mps 752 mmHg 87%
    20:00 0°C° 0 mm 4 mps 753 mmHg 87%
    21:00 0°C° 0 mm 5 mps 753 mmHg 88%
    22:00 0°C° 0 mm 5 mps 754 mmHg 89%
    23:00 0°C° 0.1 mm 5 mps 754 mmHg 88%

    Tomorrow, 17 October, Thursday

    Time Temperature Precipitation Wind Pressure Humidity
    00:00 -1°C° 0.1 mm 5 mps 754 mmHg 88%
    01:00 -1°C° 0.1 mm 5 mps 755 mmHg 88%
    02:00 -1°C° 0 mm 5 mps 755 mmHg 87%
    03:00 -2°C° 0 mm 5 mps 756 mmHg 86%
    04:00 -2°C° 0 mm 4 mps 756 mmHg 85%
    05:00 -2°C° 0 mm 4 mps 757 mmHg 84%
    06:00 -2°C° 0 mm 4 mps 757 mmHg 84%
    07:00 -2°C° 0 mm 4 mps 757 mmHg 84%
    08:00 -1°C° 0 mm 4 mps 757 mmHg 80%
    09:00 0°C° 0 mm 4 mps 758 mmHg 76%
    10:00 0°C° 0 mm 5 mps 758 mmHg 72%
    11:00 0°C° 0 mm 5 mps 758 mmHg 70%
    12:00 +1°C° 0 mm 5 mps 758 mmHg 69%
    13:00 +1°C° 0 mm 5 mps 758 mmHg 68%
    14:00 0°C° 0 mm 4 mps 758 mmHg 69%
    15:00 0°C° 0 mm 4 mps 758 mmHg 70%
    16:00 +1°C° 0 mm 3 mps 758 mmHg 71%
    17:00 0°C° 0 mm 3 mps 758 mmHg 73%
    18:00 +1°C° 0 mm 2 mps 758 mmHg 76%
    19:00 -1°C° 0 mm 2 mps 758 mmHg 79%
    20:00 -1°C° 0 mm 2 mps 758 mmHg 81%
    21:00 -1°C° 0 mm 2 mps 757 mmHg 83%
    22:00 -1°C° 0 mm 2 mps 757 mmHg 86%
    23:00 -1°C° 0.3 mm 2 mps 757 mmHg 89%

    Day after tomorrow, 18 October, Friday

    Time Temperature Precipitation Wind Pressure Humidity
    00:00 -1°C° 0.3 mm 2 mps 756 mmHg 93%
    01:00 -1°C° 0.3 mm 2 mps 755 mmHg 97%
    02:00 -1°C° 0.3 mm 2 mps 755 mmHg 97%
    03:00 -1°C° 0.3 mm 2 mps 755 mmHg 97%
    04:00 -1°C° 0.3 mm 2 mps 754 mmHg 97%
    05:00 -1°C° 0.2 mm 2 mps 754 mmHg 97%
    06:00 -1°C° 0.2 mm 3 mps 753 mmHg 97%
    07:00 -1°C° 0.2 mm 3 mps 752 mmHg 97%
    08:00 +1°C° 0.2 mm 2 mps 752 mmHg 97%
    09:00 +1°C° 0.2 mm 2 mps 752 mmHg 97%
    10:00 +1°C° 0.2 mm 2 mps 752 mmHg 97%
    11:00 +1°C° 0.5 mm 2 mps 752 mmHg 97%
    12:00 0°C° 0.5 mm 3 mps 751 mmHg 98%
    13:00 -1°C° 0.5 mm 4 mps 751 mmHg 98%
    14:00 -1°C° 0.5 mm 4 mps 752 mmHg 98%
    15:00 -1°C° 0.5 mm 4 mps 752 mmHg 97%
    16:00 -1°C° 0.5 mm 5 mps 753 mmHg 97%
    17:00 -1°C° 0.1 mm 5 mps 753 mmHg 95%
    18:00 -2°C° 0.1 mm 5 mps 754 mmHg 94%
    19:00 -2°C° 0.1 mm 5 mps 755 mmHg 92%
    20:00 -2°C° 0.1 mm 5 mps 755 mmHg 91%
    21:00 -4°C° 0.1 mm 5 mps 756 mmHg 90%
    22:00 -4°C° 0.1 mm 5 mps 757 mmHg 88%
    23:00 -4°C° 0 mm 5 mps 758 mmHg 87%

    19 October, Saturday

    Time Temperature Precipitation Wind Pressure Humidity
    00:00 -4°C° 0 mm 4 mps 758 mmHg 86%
    01:00 -4°C° 0 mm 4 mps 759 mmHg 84%
    02:00 -5°C° 0 mm 4 mps 759 mmHg 86%
    03:00 -5°C° 0 mm 4 mps 760 mmHg 88%
    04:00 -6°C° 0 mm 3 mps 761 mmHg 90%
    05:00 -6°C° 0 mm 3 mps 761 mmHg 90%
    06:00 -7°C° 0 mm 3 mps 761 mmHg 91%
    07:00 -7°C° 0 mm 3 mps 762 mmHg 91%
    08:00 -6°C° 0 mm 3 mps 762 mmHg 86%
    09:00 -5°C° 0 mm 3 mps 763 mmHg 82%
    10:00 -4°C° 0 mm 3 mps 763 mmHg 77%
    11:00 -2°C° 0 mm 3 mps 763 mmHg 74%
    12:00 -2°C° 0 mm 2 mps 764 mmHg 72%
    13:00 -1°C° 0 mm 2 mps 764 mmHg 69%
    14:00 -2°C° 0 mm 2 mps 764 mmHg 72%
    15:00 0°C° 0 mm 1 mps 764 mmHg 74%
    16:00 -1°C° 0 mm 1 mps 765 mmHg 77%
    17:00 -1°C° 0 mm 1 mps 765 mmHg 79%
    18:00 -2°C° 0 mm 1 mps 765 mmHg 80%
    19:00 -3°C° 0 mm 0 mps 765 mmHg 82%
    20:00 -3°C° 0 mm 0 mps 766 mmHg 82%
    21:00 -3°C° 0 mm 0 mps 766 mmHg 82%
    22:00 -2°C° 0 mm 1 mps 766 mmHg 83%
    23:00 -2°C° 0 mm 1 mps 766 mmHg 84%

    20 October, Sunday

    Time Temperature Precipitation Wind Pressure Humidity
    00:00 -3°C° 0 mm 1 mps 766 mmHg 85%
    01:00 -5°C° 0 mm 2 mps 766 mmHg 86%
    02:00 -5°C° 0 mm 2 mps 766 mmHg 86%
    03:00 -5°C° 0 mm 2 mps 766 mmHg 87%
    04:00 -5°C° 0 mm 2 mps 766 mmHg 88%
    05:00 -5°C° 0 mm 2 mps 766 mmHg 88%
    06:00 -5°C° 0 mm 2 mps 766 mmHg 88%
    07:00 -6°C° 0 mm 3 mps 766 mmHg 89%
    08:00 -5°C° 0 mm 3 mps 766 mmHg 84%
    09:00 -4°C° 0 mm 4 mps 766 mmHg 79%
    10:00 -3°C° 0 mm 4 mps 766 mmHg 74%
    11:00 -2°C° 0 mm 5 mps 765 mmHg 73%
    12:00 -2°C° 0 mm 5 mps 765 mmHg 72%
    13:00 -1°C° 0 mm 5 mps 764 mmHg 71%
    14:00 -1°C° 0 mm 5 mps 764 mmHg 73%
    15:00 -2°C° 0 mm 4 mps 764 mmHg 75%
    16:00 -2°C° 0 mm 4 mps 763 mmHg 77%
    17:00 -2°C° 0 mm 4 mps 763 mmHg 78%
    18:00 -2°C° 0 mm 4 mps 763 mmHg 79%
    19:00 -3°C° 0 mm 4 mps 763 mmHg 81%
    20:00 -4°C° 0 mm 5 mps 762 mmHg 81%
    21:00 -4°C° 0 mm 5 mps 762 mmHg 81%
    22:00 -4°C° 0 mm 5 mps 761 mmHg 81%
    23:00 -2°C° 0 mm 5 mps 761 mmHg 79%

    21 October, Monday

    Time Temperature Precipitation Wind Pressure Humidity
    00:00 -2°C° 0 mm 5 mps 760 mmHg 78%
    01:00 -2°C° 0 mm 5 mps 760 mmHg 76%
    02:00 -2°C° 0.5 mm 5 mps 760 mmHg 83%
    03:00 -2°C° 0.5 mm 5 mps 759 mmHg 90%
    04:00 -2°C° 0.5 mm 5 mps 759 mmHg 97%
    05:00 -2°C° 1.2 mm 5 mps 759 mmHg 97%
    06:00 -2°C° 1.2 mm 5 mps 759 mmHg 97%
    07:00 -1°C° 1.2 mm 5 mps 758 mmHg 97%
    08:00 -1°C° 1 mm 5 mps 758 mmHg 97%
    09:00 -1°C° 1 mm 5 mps 758 mmHg 97%
    10:00 -1°C° 1 mm 5 mps 758 mmHg 97%
    11:00 0°C° 0.6 mm 4 mps 758 mmHg 97%
    12:00 0°C° 0.6 mm 4 mps 758 mmHg 98%
    13:00 +1°C° 0.6 mm 3 mps 758 mmHg 98%
    14:00 +1°C° 0.1 mm 3 mps 758 mmHg 98%
    15:00 +1°C° 0.1 mm 3 mps 758 mmHg 98%
    16:00 +2°C° 0.1 mm 2 mps 758 mmHg 97%
    17:00 +2°C° 0 mm 2 mps 758 mmHg 97%
    18:00 +2°C° 0 mm 2 mps 759 mmHg 97%
    19:00 +3°C° 0 mm 1 mps 759 mmHg 96%
    20:00 +3°C° 0.1 mm 1 mps 759 mmHg 97%
    21:00 +3°C° 0.1 mm 1 mps 759 mmHg 97%
    22:00 +3°C° 0.1 mm 1 mps 760 mmHg 97%
    23:00 +2°C° 0 mm 0 mps 760 mmHg 97%
    Show more